Home   Weather   Port Angeles   Past weeks

Flag for USA Past Weather in Port Angeles, Washington, USA — Yesterday and Last 2 Weeks

Now
50 °F

Overcast.


Feels Like: 46 °F
Forecast: 45 / 52 °F
Wind: 10 mph from Northwest

Location: William R. Fairchild International Airport

Current Time: Apr 27, 2017 at 12:20:58 pm

Latest Report: Apr 27, 2017 at 10:53 am


Visibility: 10 mi

Pressure: 30.07 "Hg

Humidity: 68%

Dew Point: 40 °F

Location of Port AngelesLocation

Past Weather in Port Angeles — Graph

°F

Port Angeles Temperature Yesterday

Maximum temperature yesterday: 54 °F (at 11:53 am)
Minimum temperature yesterday: 44 °F (at 4:53 am)
Average temperature yesterday: 48 °F

High & Low Weather Summary for the Past Weeks

 TemperatureHumidityPressure
High57 °F (Apr 19, 3:53 pm)100% (Apr 13, 3:20 am)30.41 "Hg (Apr 13, 3:20 am)
Low33 °F (Apr 16, 3:53 am)55% (Apr 16, 5:53 pm)29.65 "Hg (Apr 12, 7:53 pm)
Average48 °F84%29.94 "Hg
* Reported Apr 12 10:12 am — Apr 27 10:53 am, Port Angeles, Weather by CustomWeather, © 2017

Note: Actual official high and low records may vary slightly from our data, if they occured in-between our weather recording intervals... More about our weather records

Advertising

Port Angeles Weather History for the Previous 24 Hours

Scroll right to see more
 ConditionsComfort  
Time TempWeatherWind HumidityBarometerVisibility
10:53 am
Thu, Apr 27
50 °FOvercast.10 mph68%30.07 "Hg10 mi
9:53 am49 °FScattered clouds.10 mph69%30.06 "Hg10 mi
8:53 am50 °FPartly sunny.13 mph61%30.06 "Hg10 mi
7:53 am45 °FBroken clouds.6 mph74%30.05 "Hg10 mi
6:53 am43 °FScattered clouds.9 mph76%30.04 "Hg10 mi
5:53 am43 °FOvercast.9 mph76%30.03 "Hg10 mi
4:53 am42 °FPassing clouds.13 mph76%30.03 "Hg10 mi
3:53 am41 °FClear.8 mph80%30.01 "Hg10 mi
2:53 am43 °FPassing clouds.9 mph74%30.01 "Hg10 mi
1:53 am43 °FClear.9 mph76%30.01 "Hg10 mi
12:53 am45 °FPassing clouds.15 mph68%29.99 "Hg10 mi
11:53 pm
Wed, Apr 26
44 °FClear.12 mph73%29.98 "Hg10 mi
10:53 pm45 °FPassing clouds.12 mph68%29.97 "Hg10 mi
9:53 pm46 °FPassing clouds.17 mph66%29.96 "Hg10 mi
8:53 pm46 °FPassing clouds.16 mph66%29.94 "Hg10 mi
7:53 pm47 °FScattered clouds.14 mph66%29.91 "Hg10 mi
6:53 pm50 °FPassing clouds.18 mph61%29.89 "Hg10 mi
5:53 pm51 °FPartly sunny.20 mph61%29.88 "Hg10 mi
4:53 pm53 °FPartly sunny.16 mph59%29.87 "Hg10 mi
3:53 pm50 °FCloudy.13 mph74%29.86 "Hg10 mi
2:53 pm53 °FPassing clouds.17 mph61%29.86 "Hg10 mi
1:53 pm48 °FLight rain. Broken clouds.24 mph77%29.87 "Hg5 mi
12:53 pm54 °FPassing clouds.22 mph62%29.83 "Hg10 mi
Weather by CustomWeather, © 2017

See weather overviewHow to use our weather pages